Date,TemperatureHighF,TemperatureAvgF,TemperatureLowF,DewpointHighF,DewpointAvgF,DewpointLowF,HumidityHigh,HumidityAvg,HumidityLow,PressureMaxIn,PressureMinIn,WindSpeedMaxMPH,WindSpeedAvgMPH,GustSpeedMaxMPH,PrecipitationSumIn
2014-1-1,62.8,52.5,42.8,56.3,49.2,40.4,91,89,76,30.30,29.98,5,2,5,0.08
2014-1-2,60.8,52.0,28.4,56.9,41.3,16.7,91,69,42,30.33,29.86,14,4,14,0.25
2014-1-3,49.5,36.1,26.1,18.1,14.5,9.1,69,43,21,30.39,30.25,8,2,8,0.00
2014-1-4,65.3,46.1,26.1,48.1,34.3,16.9,85,65,40,30.25,29.98,7,3,7,0.00
2014-1-5,67.3,56.3,43.5,58.8,49.6,33.1,89,79,64,30.01,29.80,13,3,13,0.00
2014-1-6,43.7,33.2,23.0,33.1,6.8,-32.8,68,37,4,30.54,30.01,14,6,14,0.00
2014-1-7,42.4,27.7,16.7,8.1,-7.6,-36.9,50,29,3,30.60,30.45,7,2,7,0.00
2014-1-8,56.1,34.3,19.4,19.3,11.9,-5.5,59,42,9,30.45,30.27,7,2,7,0.00
2014-1-9,71.2,47.2,29.3,43.2,30.8,14.3,83,55,36,30.30,30.16,7,2,7,0.00
2014-1-10,65.8,57.2,47.3,63.1,54.1,42.3,91,89,79,30.19,29.86,8,3,8,0.00
2014-1-11,78.8,63.7,40.6,67.3,47.6,22.5,91,62,23,30.07,29.77,13,4,13,0.54
2014-1-12,72.1,50.5,34.0,44.8,34.3,29.4,88,60,25,30.19,30.04,8,1,8,0.00
2014-1-13,61.3,57.7,43.7,58.7,54.6,40.1,91,90,82,30.07,29.80,8,3,8,0.75
2014-1-14,72.7,54.0,40.5,55.3,41.7,32.5,91,68,27,30.10,29.86,8,2,8,0.00
2014-1-15,62.2,47.1,33.1,99.9,25.2,-46.0,90,45,1,30.19,29.98,13,3,13,0.00
2014-1-16,57.7,43.6,25.7,39.4,25.4,13.2,80,52,24,30.22,30.04,12,3,12,0.00
2014-1-17,69.3,51.3,30.4,45.2,23.0,-38.7,82,44,1,30.19,30.01,12,3,12,0.00
2014-1-18,59.9,43.9,25.3,99.9,19.1,-29.9,78,42,2,30.25,30.04,10,2,10,0.00
2014-1-19,72.7,53.8,37.0,50.1,38.8,30.1,90,62,25,30.19,30.01,8,2,8,0.00
2014-1-20,69.3,48.4,32.5,51.6,39.9,29.7,91,76,34,30.10,29.92,9,1,9,0.00
2014-1-21,67.5,53.6,32.5,99.9,27.8,-29.5,91,46,2,30.13,29.89,13,5,13,0.00
2014-1-22,59.2,38.7,25.7,99.9,16.4,-30.1,81,44,2,30.19,30.10,7,2,7,0.00
2014-1-23,61.2,45.8,30.4,29.4,22.1,14.0,84,45,18,30.48,30.10,14,3,14,0.00
2014-1-24,37.4,32.8,29.5,23.1,12.8,5.9,72,45,33,30.51,30.25,12,4,12,0.00
2014-1-25,58.8,43.2,31.5,39.1,32.5,22.8,86,68,39,30.27,29.98,10,2,10,0.00
2014-1-26,61.3,46.5,34.0,45.2,36.9,30.5,91,73,36,29.98,29.86,7,1,7,0.00
2014-1-27,72.1,58.5,44.6,62.8,48.7,16.5,91,72,32,30.07,29.83,12,3,12,0.13
2014-1-28,45.3,32.3,25.0,26.1,16.2,3.6,86,56,26,30.27,30.01,17,6,17,0.00
2014-1-29,35.4,27.1,21.7,15.7,3.9,-4.3,67,38,18,30.36,30.22,12,4,12,0.04
2014-1-30,54.3,32.4,16.5,20.7,11.5,1.2,75,45,19,30.30,30.10,9,2,9,0.09
2014-1-31,68.9,44.2,25.7,43.1,32.4,19.2,88,66,37,30.16,30.01,6,2,6,0.00
2014-2-1,73.8,56.2,34.3,60.2,50.5,30.9,91,82,56,30.07,29.98,10,3,10,0.00
2014-2-2,65.7,63.0,60.8,63.0,60.3,58.2,91,91,91,30.04,29.86,12,4,12,0.08
2014-2-3,62.4,51.7,43.2,59.6,45.7,40.7,91,81,52,30.10,29.92,10,5,10,0.12
2014-2-4,68.0,55.5,43.0,64.8,52.7,40.5,91,90,86,30.07,29.86,14,4,14,0.09
2014-2-5,63.9,51.4,37.2,61.2,38.7,27.2,91,64,37,30.27,29.89,12,5,12,0.08
2014-2-6,38.1,34.9,30.2,30.5,25.1,20.1,87,68,49,30.33,30.22,12,5,12,0.04
2014-2-7,60.3,44.7,28.2,37.3,30.2,25.0,91,60,33,30.33,30.13,10,3,10,0.00
2014-2-8,69.3,52.5,40.5,45.5,39.1,31.4,90,63,36,30.22,30.04,9,2,9,0.00
2014-2-9,75.4,55.5,37.9,55.0,45.9,35.5,91,74,37,30.13,30.01,7,2,7,0.00
2014-2-10,71.1,58.3,48.6,62.7,53.4,46.1,91,84,63,30.07,29.98,10,2,10,0.00
2014-2-11,48.6,42.6,38.5,46.1,40.1,36.1,91,91,90,30.10,29.98,12,5,12,0.59
2014-2-12,50.0,43.7,38.1,47.3,41.0,35.5,91,90,87,30.01,29.77,13,4,13,1.17
2014-2-13,62.2,44.2,36.3,42.3,35.0,30.4,91,73,37,29.86,29.00,10,3,10,0.00
2014-2-14,63.5,50.8,32.5,52.4,41.2,30.2,91,73,34,29.86,28.47,13,3,13,0.00
2014-2-15,70.0,54.3,39.7,52.4,37.7,27.8,88,58,22,30.19,29.83,8,2,8,0.00
2014-2-16,75.6,54.7,34.3,53.8,42.2,32.0,91,69,24,30.13,30.07,9,2,9,0.00
2014-2-17,74.1,64.2,56.7,63.0,58.3,53.1,91,82,61,30.13,30.04,10,4,10,0.00
2014-2-18,75.9,63.9,59.5,64.1,60.1,56.9,91,88,62,30.16,30.04,8,3,9,0.00
2014-2-19,81.3,67.8,61.9,68.9,62.4,59.2,91,84,56,30.10,29.95,10,3,10,0.00
2014-2-20,80.4,70.1,64.2,69.7,65.2,61.5,91,85,64,29.98,29.86,15,6,15,0.00
2014-2-21,73.2,60.2,41.9,65.6,31.1,-3.2,91,42,7,30.10,29.80,15,3,15,0.68
2014-2-22,77.5,55.2,39.7,46.6,34.8,23.8,81,53,15,30.16,29.98,8,2,8,0.00
2014-2-23,73.8,61.9,53.6,65.5,58.3,46.9,91,88,71,30.01,29.89,7,1,7,0.45
2014-2-24,78.6,63.7,53.4,60.3,55.0,47.0,91,77,37,30.10,29.98,8,2,8,0.00
2014-2-25,76.3,63.1,52.5,62.0,56.6,50.0,91,81,50,30.07,29.86,8,2,8,0.28
2014-2-26,63.0,49.1,39.9,60.3,41.6,24.0,91,76,50,30.01,29.83,14,5,14,1.13
2014-2-27,63.0,44.9,31.1,99.9,16.8,-40.0,81,42,1,30.10,29.95,11,3,11,0.00
2014-2-28,66.6,49.2,29.8,50.5,34.8,25.3,88,62,24,30.07,29.98,10,3,10,0.00
2014-3-1,80.4,64.6,52.7,59.0,54.9,48.9,91,73,43,30.13,29.98,8,3,8,0.00
2014-3-2,74.8,64.4,52.3,64.2,57.3,49.8,91,80,51,30.16,29.92,10,3,10,0.00
2014-3-3,65.3,52.1,33.6,62.6,41.0,24.2,91,68,38,30.19,29.86,14,6,14,0.00
2014-3-4,37.9,34.9,32.4,34.7,27.6,23.7,90,75,61,30.22,30.04,10,4,10,0.21
2014-3-10,84.9,69.9,61.7,57.2,52.1,46.2,83,57,29,30.07,29.92,10,4,10,0.00
2014-3-11,67.1,62.5,57.7,63.0,59.4,54.6,96,90,78,29.95,29.68,14,2,14,0.33
2014-3-12,72.3,62.1,48.6,62.0,52.5,29.9,96,74,43,30.13,29.71,13,5,13,0.00
2014-3-13,73.2,53.2,33.6,41.9,34.5,28.4,91,55,21,30.27,29.95,9,2,9,0.00
2014-3-14,74.1,55.7,36.7,51.4,44.2,35.4,96,70,39,30.25,30.07,12,2,12,0.00
2014-3-15,70.9,62.3,53.1,65.5,60.0,50.7,96,92,80,30.07,29.86,10,3,10,0.00
2014-3-16,64.9,64.9,64.9,63.8,63.8,63.8,96,96,96,29.86,29.86,6,6,6,0.00
2014-3-17,64.9,53.4,45.1,63.8,42.9,36.8,96,69,46,29.86,29.71,6,4,6,0.00
2014-3-18,69.4,52.2,43.5,48.2,42.3,37.2,88,71,41,29.98,29.80,10,3,10,0.00
2014-3-19,72.9,54.0,48.9,55.8,48.6,45.5,92,83,48,30.07,29.98,8,1,8,0.00
2014-3-20,85.6,64.6,51.8,55.0,51.2,43.7,96,67,31,30.13,29.98,8,3,9,0.00
2014-3-21,70.9,58.1,47.3,69.7,50.3,44.5,96,78,41,30.07,29.98,6,1,6,0.00
2014-3-22,54.9,54.2,52.9,53.3,52.1,35.4,95,93,49,30.01,29.98,5,0,5,0.00
2014-3-29,78.3,65.8,46.6,67.3,51.6,37.4,97,64,35,29.47,29.12,12,4,12,0.56
2014-3-30,81.3,59.1,44.2,46.9,43.4,39.9,93,61,26,29.50,29.38,8,3,8,0.00
2014-3-31,79.3,59.1,40.6,56.2,46.1,39.9,97,69,30,29.44,29.32,9,2,11,0.00
2014-4-1,81.0,64.1,48.2,65.2,56.4,47.1,97,79,49,29.41,29.32,10,2,10,0.00
2014-4-2,83.1,69.6,56.8,70.6,64.2,56.0,97,85,59,29.35,29.26,12,4,12,0.00
2014-4-3,84.6,73.5,67.6,70.0,67.4,65.3,97,83,56,29.29,29.18,14,6,14,0.00
2014-4-4,82.9,72.7,67.1,72.4,68.5,65.7,97,87,68,29.29,29.15,10,3,10,0.03
2014-4-5,68.2,62.1,56.8,65.7,54.4,45.9,97,78,52,29.32,29.20,9,3,9,0.16
2014-4-6,72.0,66.5,58.3,70.4,65.1,57.4,97,95,88,29.24,29.00,13,4,13,0.00
2014-4-7,84.6,72.0,58.8,70.9,62.3,49.0,97,74,41,29.15,28.91,12,4,12,0.08
2014-4-8,58.8,51.9,46.8,49.8,47.6,45.4,95,85,72,29.18,29.09,5,1,5,0.00
2014-11-28,63.9,36.8,35.1,35.7,32.8,32.4,90,87,35,30.18,30.06,7,0,7,0.00
2014-11-29,75.0,61.3,35.1,61.1,54.1,32.4,95,79,51,30.21,30.06,6,2,18,0.00
2014-11-30,80.1,65.8,50.7,65.9,59.5,49.9,97,82,57,30.18,30.06,9,2,9,0.00
2014-12-1,63.3,57.2,54.1,62.2,56.3,53.0,98,97,95,30.24,30.18,2,0,2,0.00
2014-12-2,57.6,54.4,52.5,55.8,53.8,51.7,98,98,94,30.21,30.15,2,0,2,0.00
2014-12-3,78.8,65.9,58.5,65.2,61.8,57.6,97,88,59,30.15,30.06,6,1,6,0.00
2014-12-4,81.3,64.8,54.9,68.0,60.6,54.3,98,88,63,30.18,30.06,9,2,9,0.00
2014-12-6,72.5,71.6,70.7,69.7,69.4,68.9,94,93,91,30.22,30.22,6,4,6,0.00
2014-12-16,72.7,58.9,41.7,58.5,40.8,34.2,94,55,33,30.26,30.09,11,2,9,0.00
2014-12-17,66.2,48.9,35.8,43.1,38.6,33.3,94,71,43,30.30,30.15,6,1,6,0.00
2014-12-18,45.1,43.1,41.9,43.5,42.0,40.8,97,96,90,30.21,30.15,2,0,2,0.00
2014-12-25,79.2,69.3,0.0,46.2,39.3,0.0,33,30,31,30.15,29.97,5,1,6,151.30
2014-12-26,78.4,72.3,37.6,54.5,45.0,25.2,89,38,31,30.12,30.00,6,2,9,0.00
2014-12-27,81.0,73.5,68.0,58.6,52.6,47.0,60,49,36,30.06,29.94,6,1,8,0.75
2014-12-28,74.7,72.0,68.0,62.3,58.0,47.4,68,62,49,29.97,29.85,6,1,9,0.08
2014-12-29,73.2,70.6,68.9,55.9,54.0,52.5,60,56,52,30.00,29.85,5,0,6,0.00
2014-12-30,73.6,69.9,67.5,52.7,48.8,43.7,54,48,37,30.27,30.00,8,2,11,0.00
2015-1-1,60.4,54.3,43.2,49.4,46.4,39.8,88,75,66,30.27,30.13,7,3,7,0.00
2015-1-2,55.4,53.9,53.8,46.2,45.9,44.5,75,74,69,30.20,30.10,8,3,8,0.00